UAE353 WSSS-OMDB

Flight info

Callsign UAE353
Flight time 6h 47m
Altitude 36000
Route AROSO3A AROSO Y513 KALIL Y504 GUNIP N571 IDASO/N0486F380 N571 VUSET A454 PASOV B540 KUPMA/N0397F240 B540 MIVEK P574 IMPED
Aircraft A388/J-SADE2E3FGHIJ3J4J5M1RWXY/LB1D1

Departure

Time 2026-04-20 14:38
Airport Singapore Changi Airport (WSSS)

Arrival

Time 2026-04-20 21:25
Airport Dubai International Airport (OMDB)
Time Latitude Longitude Altitude Speed Heading
2026-04-20 14:17 1.36711 103.98901 35 ft 1 kts 112°
2026-04-20 14:18 1.36716 103.98890 35 ft 3 kts 121°
2026-04-20 14:18 1.36730 103.98871 33 ft 3 kts 136°
2026-04-20 14:18 1.36747 103.98854 31 ft 3 kts 117°
2026-04-20 14:18 1.36755 103.98836 32 ft 3 kts 96°
2026-04-20 14:19 1.36751 103.98820 32 ft 3 kts 25°
2026-04-20 14:19 1.36730 103.98812 31 ft 3 kts 22°
2026-04-20 14:19 1.36710 103.98804 33 ft 1 kts 22°
2026-04-20 14:19 1.36710 103.98803 33 ft 1 kts 22°
2026-04-20 14:23 1.36722 103.98809 34 ft 4 kts 22°
2026-04-20 14:24 1.36755 103.98822 35 ft 6 kts 22°
2026-04-20 14:24 1.36805 103.98842 35 ft 9 kts 23°
2026-04-20 14:24 1.36871 103.98871 35 ft 11 kts 23°
2026-04-20 14:24 1.36930 103.98896 35 ft 8 kts 23°
2026-04-20 14:25 1.36962 103.98920 35 ft 5 kts 66°
2026-04-20 14:25 1.36964 103.98958 35 ft 7 kts 99°
2026-04-20 14:25 1.36945 103.99012 35 ft 10 kts 114°
2026-04-20 14:25 1.36914 103.99080 35 ft 12 kts 114°
2026-04-20 14:26 1.36880 103.99159 35 ft 13 kts 114°
2026-04-20 14:26 1.36841 103.99246 35 ft 14 kts 114°
2026-04-20 14:26 1.36803 103.99338 35 ft 13 kts 112°
2026-04-20 14:26 1.36767 103.99423 35 ft 10 kts 112°
2026-04-20 14:27 1.36739 103.99488 35 ft 11 kts 114°
2026-04-20 14:27 1.36706 103.99563 35 ft 12 kts 114°
2026-04-20 14:27 1.36671 103.99644 35 ft 13 kts 113°
2026-04-20 14:27 1.36638 103.99720 35 ft 9 kts 113°
2026-04-20 14:28 1.36618 103.99769 35 ft 9 kts 113°
2026-04-20 14:28 1.36589 103.99826 35 ft 7 kts 135°
2026-04-20 14:28 1.36544 103.99840 35 ft 8 kts 180°
2026-04-20 14:28 1.36479 103.99820 35 ft 12 kts 204°
2026-04-20 14:29 1.36389 103.99780 35 ft 16 kts 203°
2026-04-20 14:29 1.36279 103.99734 35 ft 19 kts 202°
2026-04-20 14:29 1.36152 103.99682 35 ft 21 kts 202°
2026-04-20 14:29 1.36021 103.99625 35 ft 22 kts 204°
2026-04-20 14:30 1.35891 103.99571 35 ft 21 kts 202°
2026-04-20 14:30 1.35753 103.99514 35 ft 22 kts 202°
2026-04-20 14:30 1.35607 103.99451 35 ft 23 kts 203°
2026-04-20 14:30 1.35458 103.99389 35 ft 22 kts 202°
2026-04-20 14:31 1.35311 103.99328 35 ft 23 kts 202°
2026-04-20 14:31 1.35159 103.99264 35 ft 24 kts 203°
2026-04-20 14:31 1.35002 103.99196 35 ft 25 kts 203°
2026-04-20 14:31 1.34839 103.99128 35 ft 26 kts 203°
2026-04-20 14:32 1.34729 103.99081 35 ft 26 kts 202°
2026-04-20 14:32 1.34561 103.99010 35 ft 26 kts 202°
2026-04-20 14:32 1.34411 103.98948 35 ft 24 kts 202°
2026-04-20 14:32 1.34257 103.98883 35 ft 25 kts 202°
2026-04-20 14:33 1.34096 103.98815 35 ft 25 kts 202°
2026-04-20 14:33 1.33880 103.98724 35 ft 25 kts 202°
2026-04-20 14:33 1.33771 103.98678 35 ft 26 kts 203°
2026-04-20 14:33 1.33604 103.98608 35 ft 26 kts 203°
2026-04-20 14:34 1.33435 103.98537 35 ft 27 kts 203°
2026-04-20 14:34 1.33266 103.98466 35 ft 22 kts 202°
2026-04-20 14:34 1.33148 103.98416 35 ft 17 kts 203°
2026-04-20 14:34 1.33069 103.98383 35 ft 10 kts 203°
2026-04-20 14:35 1.33004 103.98355 35 ft 9 kts 202°
2026-04-20 14:35 1.32962 103.98355 35 ft 6 kts 145°
2026-04-20 14:35 1.32937 103.98390 35 ft 7 kts 114°
2026-04-20 14:35 1.32913 103.98444 35 ft 10 kts 114°
2026-04-20 14:36 1.32906 103.98493 35 ft 5 kts 63°
2026-04-20 14:36 1.32937 103.98523 35 ft 7 kts 27°
2026-04-20 14:36 1.32972 103.98538 35 ft 0 kts 22°
2026-04-20 14:36 1.32984 103.98543 35 ft 4 kts 22°
2026-04-20 14:37 1.33060 103.98574 35 ft 32 kts 22°
2026-04-20 14:37 1.33515 103.98762 35 ft 105 kts 23°
2026-04-20 14:37 1.34345 103.99117 35 ft 154 kts 22°
2026-04-20 14:37 1.35397 103.99584 245 ft 169 kts 23°
2026-04-20 14:38 1.36442 104.00062 711 ft 171 kts 24°
2026-04-20 14:38 1.37552 104.00577 1133 ft 173 kts 24°
2026-04-20 14:38 1.38667 104.01028 1611 ft 174 kts 21°
2026-04-20 14:38 1.39840 104.01462 1811 ft 188 kts 21°
2026-04-20 14:39 1.41108 104.01954 1956 ft 202 kts 22°
2026-04-20 14:39 1.42454 104.02506 2050 ft 219 kts 23°
2026-04-20 14:39 1.43940 104.03135 2328 ft 240 kts 24°
2026-04-20 14:39 1.45544 104.03821 2662 ft 259 kts 24°
2026-04-20 14:40 1.47227 104.04545 3316 ft 264 kts 23°
2026-04-20 14:40 1.48975 104.05044 3947 ft 268 kts
2026-04-20 14:40 1.50810 104.04726 4658 ft 271 kts 336°
2026-04-20 14:40 1.52441 104.03782 5304 ft 274 kts 320°
2026-04-20 14:41 1.53825 104.02443 5966 ft 278 kts 314°
2026-04-20 14:41 1.55167 104.01039 6621 ft 281 kts 313°
2026-04-20 14:41 1.56520 103.99620 7259 ft 283 kts 314°
2026-04-20 14:41 1.57904 103.98187 7886 ft 286 kts 314°
2026-04-20 14:42 1.59287 103.96770 8498 ft 289 kts 314°
2026-04-20 14:42 1.60706 103.95326 9127 ft 292 kts 314°
2026-04-20 14:42 1.62144 103.93865 9761 ft 295 kts 314°
2026-04-20 14:42 1.63597 103.92391 10268 ft 302 kts 314°
2026-04-20 14:43 1.65100 103.90866 10428 ft 320 kts 314°
2026-04-20 14:43 1.66702 103.89240 10568 ft 335 kts 314°
2026-04-20 14:43 1.68377 103.87540 10810 ft 347 kts 314°
2026-04-20 14:43 1.70081 103.85811 11320 ft 349 kts 314°
2026-04-20 14:44 1.71790 103.84076 11831 ft 352 kts 314°
2026-04-20 14:44 1.73519 103.82321 12359 ft 355 kts 314°
2026-04-20 14:44 1.75259 103.80554 12867 ft 358 kts 315°
2026-04-20 14:44 1.76990 103.78797 13382 ft 360 kts 315°
2026-04-20 14:45 1.78765 103.76994 13885 ft 363 kts 315°
2026-04-20 14:45 1.80545 103.75187 14340 ft 366 kts 315°
2026-04-20 14:45 1.82338 103.73367 14800 ft 368 kts 315°
2026-04-20 14:45 1.84139 103.71538 15257 ft 371 kts 315°
2026-04-20 14:46 1.85962 103.69687 15710 ft 374 kts 315°
2026-04-20 14:46 1.87792 103.67828 16165 ft 377 kts 315°
2026-04-20 14:46 1.89619 103.65973 16605 ft 379 kts 315°
2026-04-20 14:46 1.91477 103.64086 17052 ft 382 kts 315°
2026-04-20 14:47 1.93352 103.62182 17485 ft 385 kts 315°
2026-04-20 14:47 1.95236 103.60268 17930 ft 387 kts 314°
2026-04-20 14:47 1.97136 103.58339 18347 ft 390 kts 314°
2026-04-20 14:48 2.00972 103.54442 19130 ft 394 kts 314°
2026-04-20 14:48 2.02896 103.52488 19516 ft 396 kts 314°
2026-04-20 14:48 2.04803 103.50551 19873 ft 398 kts 314°
2026-04-20 14:48 2.06753 103.48569 20258 ft 400 kts 314°
2026-04-20 14:49 2.08715 103.46576 20635 ft 402 kts 314°
2026-04-20 14:49 2.10677 103.44583 20991 ft 404 kts 314°
2026-04-20 14:49 2.12634 103.42543 21325 ft 406 kts 310°
2026-04-20 14:49 2.14266 103.40236 21678 ft 408 kts 300°
2026-04-20 14:50 2.15458 103.37683 22036 ft 410 kts 290°
2026-04-20 14:50 2.16274 103.34942 22380 ft 412 kts 286°
2026-04-20 14:50 2.17069 103.32170 22728 ft 414 kts 286°
2026-04-20 14:50 2.17879 103.29400 23050 ft 416 kts 286°
2026-04-20 14:51 2.18700 103.26607 23384 ft 418 kts 287°
2026-04-20 14:51 2.19513 103.23842 23675 ft 420 kts 287°
2026-04-20 14:51 2.20340 103.21022 23926 ft 422 kts 287°
2026-04-20 14:51 2.21167 103.18194 24208 ft 424 kts 287°
2026-04-20 14:52 2.21998 103.15362 24488 ft 426 kts 287°
2026-04-20 14:52 2.22837 103.12522 24745 ft 427 kts 287°
2026-04-20 14:52 2.23674 103.09655 24995 ft 429 kts 287°
2026-04-20 14:52 2.24515 103.06786 25253 ft 430 kts 287°
2026-04-20 14:53 2.25358 103.03911 25519 ft 432 kts 287°
2026-04-20 14:53 2.26202 103.01018 25793 ft 434 kts 287°
2026-04-20 14:53 2.27053 102.98104 26082 ft 436 kts 287°
2026-04-20 14:53 2.27894 102.95226 26357 ft 438 kts 287°
2026-04-20 14:54 2.28751 102.92294 26651 ft 440 kts 287°
2026-04-20 14:54 2.29611 102.89354 26913 ft 442 kts 287°
2026-04-20 14:54 2.30484 102.86388 27177 ft 444 kts 287°
2026-04-20 14:54 2.31358 102.83417 27470 ft 446 kts 287°
2026-04-20 14:55 2.32234 102.80431 27786 ft 448 kts 287°
2026-04-20 14:55 2.33114 102.77432 28090 ft 450 kts 287°
2026-04-20 14:55 2.33996 102.74411 28417 ft 453 kts 287°
2026-04-20 14:55 2.34870 102.71415 28728 ft 455 kts 287°
2026-04-20 14:56 2.35760 102.68367 29059 ft 458 kts 287°
2026-04-20 14:56 2.36657 102.65295 29408 ft 460 kts 287°
2026-04-20 14:56 2.37561 102.62201 29747 ft 463 kts 287°
2026-04-20 14:56 2.38468 102.59095 30077 ft 466 kts 287°
2026-04-20 14:57 2.39380 102.55971 30403 ft 468 kts 287°
2026-04-20 14:57 2.40297 102.52841 30723 ft 469 kts 287°
2026-04-20 14:57 2.41226 102.49710 31014 ft 472 kts 287°
2026-04-20 14:57 2.42133 102.46591 31334 ft 474 kts 287°
2026-04-20 14:58 2.43058 102.43411 31647 ft 475 kts 287°
2026-04-20 14:58 2.43981 102.40227 31958 ft 478 kts 287°
2026-04-20 14:58 2.44936 102.37034 32261 ft 480 kts 289°
2026-04-20 14:58 2.46177 102.33921 32547 ft 482 kts 296°
2026-04-20 14:59 2.47750 102.30967 32826 ft 484 kts 301°
2026-04-20 14:59 2.49637 102.28164 33134 ft 486 kts 307°
2026-04-20 14:59 2.51667 102.25446 33410 ft 489 kts 307°
2026-04-20 14:59 2.53667 102.22734 33703 ft 492 kts 306°
2026-04-20 15:00 2.55702 102.19962 34002 ft 494 kts 306°
2026-04-20 15:00 2.57738 102.17190 34271 ft 496 kts 306°
2026-04-20 15:00 2.59796 102.14391 34531 ft 499 kts 306°
2026-04-20 15:00 2.61859 102.11586 34843 ft 500 kts 306°
2026-04-20 15:01 2.63903 102.08811 35225 ft 499 kts 306°
2026-04-20 15:01 2.65960 102.06017 35616 ft 498 kts 306°
2026-04-20 15:01 2.68018 102.03221 35867 ft 498 kts 306°
2026-04-20 15:02 2.72089 101.97690 35907 ft 501 kts 306°
2026-04-20 15:02 2.76081 101.92266 35897 ft 502 kts 307°
2026-04-20 15:03 2.80197 101.86671 35892 ft 502 kts 307°
2026-04-20 15:03 2.84342 101.81039 35888 ft 502 kts 307°
2026-04-20 15:04 2.88496 101.75391 35884 ft 502 kts 307°
2026-04-20 15:04 2.92638 101.69760 35885 ft 502 kts 307°
2026-04-20 15:05 2.96760 101.64156 35882 ft 502 kts 307°
2026-04-20 15:05 3.00903 101.58522 35880 ft 503 kts 307°
2026-04-20 15:06 3.05057 101.52872 35878 ft 503 kts 307°
2026-04-20 15:06 3.09181 101.47262 35885 ft 504 kts 307°
2026-04-20 15:07 3.13340 101.41603 35887 ft 504 kts 307°
2026-04-20 15:07 3.17504 101.35937 35894 ft 504 kts 307°
2026-04-20 15:08 3.21660 101.30281 35900 ft 505 kts 307°
2026-04-20 15:08 3.25803 101.24642 35915 ft 505 kts 307°
2026-04-20 15:09 3.29968 101.18972 35914 ft 504 kts 307°
2026-04-20 15:09 3.34128 101.13308 35910 ft 504 kts 306°
2026-04-20 15:10 3.38200 101.07624 35918 ft 504 kts 305°
2026-04-20 15:10 3.42223 101.01875 35907 ft 504 kts 305°
2026-04-20 15:11 3.46254 100.96143 35909 ft 503 kts 305°
2026-04-20 15:11 3.50296 100.90411 35912 ft 503 kts 305°
2026-04-20 15:12 3.54312 100.84717 35905 ft 503 kts 305°
2026-04-20 15:12 3.58343 100.79001 35903 ft 502 kts 305°
2026-04-20 15:13 3.62415 100.73316 35908 ft 502 kts 306°
2026-04-20 15:13 3.66550 100.67672 35905 ft 502 kts 306°
2026-04-20 15:14 3.70679 100.62015 35907 ft 502 kts 306°
2026-04-20 15:14 3.74779 100.56382 35905 ft 502 kts 306°
2026-04-20 15:15 3.78899 100.50719 35904 ft 503 kts 306°
2026-04-20 15:15 3.82997 100.45084 35907 ft 503 kts 306°
2026-04-20 15:16 3.87123 100.39410 35908 ft 503 kts 306°
2026-04-20 15:16 3.91246 100.33739 35908 ft 503 kts 306°
2026-04-20 15:17 3.95368 100.28069 35909 ft 503 kts 306°
2026-04-20 15:17 3.99465 100.22432 35910 ft 503 kts 306°
2026-04-20 15:18 4.03583 100.16765 35912 ft 503 kts 306°
2026-04-20 15:18 4.07705 100.11092 35913 ft 502 kts 306°
2026-04-20 15:19 4.11792 100.05465 35909 ft 502 kts 306°
2026-04-20 15:19 4.15905 99.99801 35913 ft 502 kts 306°
2026-04-20 15:20 4.20013 99.94143 35910 ft 502 kts 306°
2026-04-20 15:20 4.23429 99.89438 35915 ft 502 kts 306°
2026-04-20 15:21 4.27544 99.83768 35909 ft 502 kts 306°
2026-04-20 15:21 4.31652 99.78106 35908 ft 502 kts 306°
2026-04-20 15:22 4.35734 99.72481 35906 ft 502 kts 306°
2026-04-20 15:22 4.39845 99.66813 35908 ft 502 kts 306°
2026-04-20 15:23 4.43963 99.61135 35908 ft 502 kts 306°
2026-04-20 15:23 4.48074 99.55465 35909 ft 502 kts 306°
2026-04-20 15:24 4.52434 99.50038 35909 ft 502 kts 311°
2026-04-20 15:24 4.57049 99.44747 35911 ft 502 kts 311°
2026-04-20 15:25 4.61612 99.39495 35913 ft 503 kts 311°
2026-04-20 15:25 4.66220 99.34191 35910 ft 502 kts 311°
2026-04-20 15:26 4.70786 99.28935 35912 ft 502 kts 311°
2026-04-20 15:26 4.75384 99.23642 35913 ft 502 kts 311°
2026-04-20 15:27 4.79971 99.18360 35914 ft 502 kts 311°
2026-04-20 15:27 4.84556 99.13080 35912 ft 501 kts 311°
2026-04-20 15:28 4.89107 99.07837 35909 ft 501 kts 311°
2026-04-20 15:28 4.93691 99.02556 35910 ft 501 kts 311°
2026-04-20 15:29 4.98269 98.97280 35909 ft 500 kts 311°
2026-04-20 15:29 5.02849 98.92000 35908 ft 500 kts 311°
2026-04-20 15:30 5.07393 98.86761 35909 ft 500 kts 311°
2026-04-20 15:30 5.11960 98.81494 35909 ft 500 kts 311°
2026-04-20 15:31 5.16524 98.76229 35906 ft 500 kts 311°
2026-04-20 15:31 5.21101 98.70948 35900 ft 500 kts 311°
2026-04-20 15:32 5.25655 98.65692 35904 ft 500 kts 311°
2026-04-20 15:32 5.30217 98.60426 35909 ft 501 kts 311°
2026-04-20 15:33 5.34800 98.55134 35915 ft 501 kts 311°
2026-04-20 15:33 5.39364 98.49862 35911 ft 502 kts 311°
2026-04-20 15:34 5.43937 98.44580 35909 ft 502 kts 311°
2026-04-20 15:34 5.48525 98.39278 35912 ft 502 kts 311°
2026-04-20 15:35 5.53083 98.34009 35913 ft 503 kts 311°
2026-04-20 15:35 5.57680 98.28694 35918 ft 503 kts 311°
2026-04-20 15:36 5.62277 98.23379 35913 ft 503 kts 311°
2026-04-20 15:36 5.66847 98.18104 35912 ft 503 kts 311°
2026-04-20 15:37 5.71410 98.12823 35907 ft 502 kts 311°
2026-04-20 15:37 5.75991 98.07513 35907 ft 503 kts 311°
2026-04-20 15:38 5.80583 98.02194 35913 ft 504 kts 311°
2026-04-20 15:38 5.85187 97.96862 35915 ft 505 kts 311°
2026-04-20 15:39 5.89773 97.91551 35923 ft 505 kts 311°
2026-04-20 15:39 5.94391 97.86200 35924 ft 506 kts 311°
2026-04-20 15:40 5.98984 97.80878 35924 ft 505 kts 311°
2026-04-20 15:40 6.03594 97.75533 35926 ft 505 kts 311°
2026-04-20 15:41 6.08196 97.70196 35925 ft 505 kts 311°
2026-04-20 15:41 6.12798 97.64859 35921 ft 504 kts 311°
2026-04-20 15:42 6.17055 97.59339 35922 ft 505 kts 302°
2026-04-20 15:42 6.19916 97.52887 35920 ft 506 kts 287°
2026-04-20 15:43 6.21888 97.46089 35918 ft 505 kts 287°
2026-04-20 15:43 6.23883 97.39356 35916 ft 505 kts 287°
2026-04-20 15:44 6.25884 97.32580 35923 ft 505 kts 287°
2026-04-20 15:44 6.27883 97.25796 35921 ft 505 kts 287°
2026-04-20 15:45 6.29877 97.19020 35928 ft 505 kts 287°
2026-04-20 15:45 6.31857 97.12290 35925 ft 505 kts 287°
2026-04-20 15:46 6.33848 97.05517 35926 ft 505 kts 287°
2026-04-20 15:46 6.35840 96.98745 35922 ft 505 kts 287°
2026-04-20 15:47 6.37821 96.91988 35916 ft 503 kts 287°
2026-04-20 15:47 6.39794 96.85258 35918 ft 504 kts 287°
2026-04-20 15:48 6.41783 96.78493 35928 ft 505 kts 287°
2026-04-20 15:48 6.43776 96.71701 35925 ft 506 kts 287°
2026-04-20 15:49 6.45767 96.64910 35937 ft 506 kts 287°
2026-04-20 15:49 6.47746 96.58156 35948 ft 506 kts 287°
2026-04-20 15:50 6.49735 96.51370 35940 ft 506 kts 288°
2026-04-20 15:50 6.52470 96.44864 35935 ft 505 kts 297°
2026-04-20 15:51 6.55599 96.38535 35935 ft 504 kts 297°
2026-04-20 15:51 6.58687 96.32232 35945 ft 504 kts 297°
2026-04-20 15:52 6.61803 96.25877 35933 ft 504 kts 297°
2026-04-20 15:52 6.64893 96.19578 35929 ft 504 kts 297°
2026-04-20 15:53 6.69555 96.10070 35935 ft 504 kts 297°
2026-04-20 15:53 6.72640 96.03775 35932 ft 504 kts 297°
2026-04-20 15:54 6.75746 95.97436 35936 ft 505 kts 297°
2026-04-20 15:54 6.78856 95.91086 35931 ft 505 kts 297°
2026-04-20 15:55 6.81949 95.84772 35936 ft 505 kts 297°
2026-04-20 15:55 6.85065 95.78408 35934 ft 505 kts 297°
2026-04-20 15:56 6.88173 95.72056 35936 ft 506 kts 296°
2026-04-20 15:56 6.91260 95.65746 35937 ft 506 kts 296°
2026-04-20 15:57 6.94368 95.59390 35942 ft 506 kts 296°
2026-04-20 15:57 6.97480 95.53023 35941 ft 506 kts 296°
2026-04-20 15:58 7.00574 95.46691 35935 ft 506 kts 296°
2026-04-20 15:58 7.03687 95.40317 35935 ft 506 kts 296°
2026-04-20 15:59 7.06795 95.33951 35939 ft 507 kts 296°
2026-04-20 15:59 7.09890 95.27607 35935 ft 507 kts 296°
2026-04-20 16:00 7.13002 95.21227 35937 ft 507 kts 296°
2026-04-20 16:00 7.16112 95.14849 35936 ft 507 kts 296°
2026-04-20 16:01 7.19204 95.08500 35931 ft 507 kts 296°
2026-04-20 16:01 7.22316 95.02112 35938 ft 507 kts 296°
2026-04-20 16:02 7.25429 94.95724 35942 ft 507 kts 296°
2026-04-20 16:02 7.28522 94.89371 35944 ft 507 kts 296°
2026-04-20 16:03 7.31630 94.82982 35943 ft 507 kts 297°
2026-04-20 16:03 7.34715 94.76639 35939 ft 506 kts 297°
2026-04-20 16:04 7.37815 94.70262 35941 ft 506 kts 297°
2026-04-20 16:04 7.40915 94.63883 35941 ft 505 kts 297°
2026-04-20 16:05 7.44006 94.57520 35935 ft 504 kts 297°
2026-04-20 16:05 7.47071 94.51205 35939 ft 504 kts 297°
2026-04-20 16:06 7.50146 94.44873 35934 ft 502 kts 297°
2026-04-20 16:06 7.53183 94.38527 35926 ft 500 kts 295°
2026-04-20 16:07 7.55982 94.32160 35926 ft 500 kts 294°
2026-04-20 16:07 7.58815 94.25742 35931 ft 499 kts 295°
2026-04-20 16:08 7.61654 94.19384 35924 ft 498 kts 294°
2026-04-20 16:08 7.64494 94.13006 35911 ft 498 kts 295°
2026-04-20 16:09 7.67342 94.06614 35921 ft 499 kts 295°
2026-04-20 16:09 7.70174 94.00258 35931 ft 499 kts 294°
2026-04-20 16:10 7.73026 93.93854 35933 ft 500 kts 294°
2026-04-20 16:10 7.75396 93.88531 35938 ft 500 kts 294°
2026-04-20 16:11 7.78248 93.82122 35937 ft 501 kts 294°
2026-04-20 16:11 7.81087 93.75739 35938 ft 501 kts 294°
2026-04-20 16:12 7.83939 93.69323 35939 ft 500 kts 294°
2026-04-20 16:12 7.86784 93.62920 35937 ft 500 kts 294°
2026-04-20 16:13 7.89627 93.56519 35927 ft 500 kts 294°
2026-04-20 16:13 7.92474 93.50107 35929 ft 499 kts 294°
2026-04-20 16:14 7.95306 93.43761 35926 ft 499 kts 294°
2026-04-20 16:14 7.98167 93.37378 35920 ft 499 kts 294°
2026-04-20 16:15 8.01027 93.30988 35919 ft 499 kts 294°
2026-04-20 16:15 8.03883 93.24599 35920 ft 499 kts 294°
2026-04-20 16:16 8.06720 93.18249 35918 ft 499 kts 294°
2026-04-20 16:16 8.09582 93.11841 35914 ft 500 kts 294°
2026-04-20 16:17 8.12426 93.05471 35919 ft 500 kts 294°
2026-04-20 16:17 8.15286 92.99060 35924 ft 501 kts 294°
2026-04-20 16:18 8.18154 92.92627 35919 ft 501 kts 294°
2026-04-20 16:18 8.21007 92.86226 35922 ft 502 kts 294°
2026-04-20 16:19 8.23872 92.79796 35924 ft 502 kts 294°
2026-04-20 16:19 8.26722 92.73394 35931 ft 502 kts 294°
2026-04-20 16:20 8.29593 92.66944 35922 ft 502 kts 294°
2026-04-20 16:20 8.32459 92.60501 35928 ft 502 kts 294°
2026-04-20 16:21 8.35322 92.54062 35924 ft 502 kts 294°
2026-04-20 16:21 8.38167 92.47659 35925 ft 502 kts 294°
2026-04-20 16:22 8.41030 92.41212 35924 ft 502 kts 294°
2026-04-20 16:22 8.43874 92.34807 35919 ft 502 kts 294°
2026-04-20 16:23 8.46733 92.28363 35923 ft 501 kts 294°
2026-04-20 16:23 8.49585 92.21930 35925 ft 501 kts 294°
2026-04-20 16:24 8.52436 92.15499 35923 ft 501 kts 294°
2026-04-20 16:24 8.55267 92.09108 35921 ft 501 kts 294°
2026-04-20 16:25 8.58114 92.02678 35917 ft 501 kts 294°
2026-04-20 16:25 8.60999 91.96257 35919 ft 501 kts 295°
2026-04-20 16:26 8.64025 91.89904 35918 ft 501 kts 295°
2026-04-20 16:26 8.67039 91.83560 35919 ft 501 kts 295°
2026-04-20 16:27 8.70029 91.77222 35919 ft 501 kts 295°
2026-04-20 16:27 8.73030 91.70848 35922 ft 502 kts 295°
2026-04-20 16:28 8.76013 91.64508 35926 ft 502 kts 295°
2026-04-20 16:28 8.79015 91.58126 35923 ft 502 kts 295°
2026-04-20 16:29 8.82015 91.51744 35923 ft 502 kts 295°
2026-04-20 16:29 8.85013 91.45364 35920 ft 502 kts 295°
2026-04-20 16:30 8.87991 91.39022 35919 ft 502 kts 295°
2026-04-20 16:30 8.90994 91.32625 35918 ft 502 kts 295°
2026-04-20 16:31 8.93974 91.26272 35917 ft 502 kts 295°
2026-04-20 16:31 8.96967 91.19888 35924 ft 502 kts 295°
2026-04-20 16:32 8.99968 91.13484 35920 ft 502 kts 295°
2026-04-20 16:32 9.02947 91.07125 35916 ft 502 kts 295°
2026-04-20 16:33 9.05940 91.00731 35919 ft 502 kts 295°
2026-04-20 16:33 9.08938 90.94324 35920 ft 502 kts 295°
2026-04-20 16:34 9.11917 90.87954 35914 ft 502 kts 295°
2026-04-20 16:34 9.14909 90.81551 35914 ft 502 kts 295°
2026-04-20 16:35 9.17883 90.75185 35918 ft 502 kts 295°
2026-04-20 16:35 9.20874 90.68778 35920 ft 502 kts 295°
2026-04-20 16:36 9.23839 90.62423 35918 ft 502 kts 295°
2026-04-20 16:36 9.26833 90.56005 35920 ft 502 kts 295°
2026-04-20 16:37 9.29798 90.49642 35917 ft 502 kts 295°
2026-04-20 16:37 9.32787 90.43227 35917 ft 502 kts 295°
2026-04-20 16:38 9.35763 90.36833 35921 ft 502 kts 295°
2026-04-20 16:38 9.38740 90.30437 35920 ft 502 kts 295°
2026-04-20 16:39 9.41706 90.24057 35917 ft 502 kts 295°
2026-04-20 16:39 9.44687 90.17644 35919 ft 502 kts 295°
2026-04-20 16:40 9.47640 90.11287 35918 ft 501 kts 294°
2026-04-20 16:40 9.50612 90.04886 35917 ft 501 kts 294°
2026-04-20 16:41 9.53582 89.98485 35898 ft 502 kts 294°
2026-04-20 16:41 9.56554 89.92078 35903 ft 502 kts 294°
2026-04-20 16:42 9.59528 89.85660 35912 ft 503 kts 294°
2026-04-20 16:42 9.62487 89.79272 35917 ft 504 kts 294°
2026-04-20 16:43 9.65469 89.72832 35922 ft 504 kts 294°
2026-04-20 16:43 9.68433 89.66426 35919 ft 504 kts 294°
2026-04-20 16:44 9.71421 89.59965 35923 ft 504 kts 294°
2026-04-20 16:44 9.74378 89.53567 35927 ft 504 kts 294°
2026-04-20 16:45 9.77355 89.47121 35926 ft 503 kts 294°
2026-04-20 16:45 9.80319 89.40696 35912 ft 502 kts 294°
2026-04-20 16:46 9.83279 89.34287 35906 ft 502 kts 294°
2026-04-20 16:46 9.86217 89.27913 35909 ft 502 kts 294°
2026-04-20 16:47 9.89171 89.21502 35914 ft 502 kts 294°
2026-04-20 16:47 9.92135 89.15065 35919 ft 502 kts 294°
2026-04-20 16:48 9.95073 89.08682 35912 ft 502 kts 294°
2026-04-20 16:48 9.98030 89.02253 35915 ft 502 kts 294°
2026-04-20 16:49 10.00988 88.95819 35919 ft 502 kts 294°
2026-04-20 16:49 10.03924 88.89428 35915 ft 502 kts 294°
2026-04-20 16:50 10.06876 88.82999 35916 ft 501 kts 294°
2026-04-20 16:50 10.09806 88.76614 35917 ft 501 kts 294°
2026-04-20 16:51 10.12752 88.70191 35911 ft 501 kts 294°
2026-04-20 16:51 10.15690 88.63781 35913 ft 500 kts 294°
2026-04-20 16:52 10.18631 88.57364 35912 ft 500 kts 294°
2026-04-20 16:52 10.21565 88.51001 35911 ft 500 kts 295°
2026-04-20 16:53 10.24764 88.44704 35911 ft 500 kts 296°
2026-04-20 16:53 10.27961 88.38470 35915 ft 500 kts 296°
2026-04-20 16:54 10.31154 88.32167 35918 ft 500 kts 296°
2026-04-20 16:54 10.34314 88.25907 35918 ft 500 kts 296°
2026-04-20 16:55 10.37488 88.19612 35924 ft 500 kts 296°
2026-04-20 16:55 10.40661 88.13316 35915 ft 500 kts 296°
2026-04-20 16:56 10.43833 88.07018 35917 ft 500 kts 296°
2026-04-20 16:56 10.46985 88.00755 35917 ft 500 kts 296°
2026-04-20 16:57 10.50161 87.94443 35915 ft 500 kts 296°
2026-04-20 16:57 10.53332 87.88136 35916 ft 501 kts 296°
2026-04-20 16:58 10.56484 87.81860 35917 ft 501 kts 296°
2026-04-20 16:58 10.59654 87.75549 35920 ft 501 kts 296°
2026-04-20 16:59 10.62278 87.70319 35920 ft 501 kts 296°
2026-04-20 16:59 10.65982 87.62936 35918 ft 500 kts 295°
2026-04-20 17:00 10.70703 87.53515 35918 ft 500 kts 295°
2026-04-20 17:01 10.73350 87.48230 35908 ft 500 kts 295°
2026-04-20 17:01 10.76487 87.41962 35912 ft 500 kts 295°
2026-04-20 17:02 10.79640 87.35659 35920 ft 500 kts 295°
2026-04-20 17:02 10.82794 87.29348 35913 ft 499 kts 295°
2026-04-20 17:03 10.85948 87.23037 35912 ft 499 kts 295°
2026-04-20 17:03 10.89075 87.16774 35911 ft 499 kts 295°
2026-04-20 17:04 10.92217 87.10476 35910 ft 498 kts 295°
2026-04-20 17:04 10.95357 87.04179 35908 ft 498 kts 295°
2026-04-20 17:05 10.98478 86.97918 35908 ft 498 kts 295°
2026-04-20 17:05 11.01612 86.91624 35908 ft 498 kts 295°
2026-04-20 17:06 11.04746 86.85328 35909 ft 498 kts 295°
2026-04-20 17:06 11.07866 86.79056 35909 ft 498 kts 295°
2026-04-20 17:07 11.11001 86.72750 35908 ft 498 kts 295°
2026-04-20 17:07 11.14133 86.66446 35909 ft 498 kts 295°
2026-04-20 17:08 11.17267 86.60133 35909 ft 498 kts 295°
2026-04-20 17:08 11.20374 86.53870 35911 ft 498 kts 295°
2026-04-20 17:09 11.23508 86.47550 35914 ft 498 kts 295°
2026-04-20 17:09 11.26634 86.41242 35913 ft 498 kts 295°
2026-04-20 17:10 11.29745 86.34961 35912 ft 498 kts 295°
2026-04-20 17:10 11.32868 86.28650 35908 ft 498 kts 295°
2026-04-20 17:11 11.35990 86.22337 35909 ft 498 kts 295°
2026-04-20 17:11 11.39109 86.16028 35907 ft 498 kts 295°
2026-04-20 17:12 11.42227 86.09714 35908 ft 498 kts 295°
2026-04-20 17:12 11.45326 86.03436 35906 ft 498 kts 295°
2026-04-20 17:13 11.48449 85.97105 35904 ft 498 kts 295°
2026-04-20 17:13 11.51537 85.90841 35904 ft 498 kts 295°
2026-04-20 17:14 11.54655 85.84512 35906 ft 498 kts 294°
2026-04-20 17:14 11.57759 85.78207 35904 ft 497 kts 294°
2026-04-20 17:15 11.60851 85.71923 35904 ft 497 kts 294°
2026-04-20 17:15 11.63955 85.65609 35902 ft 497 kts 294°
2026-04-20 17:16 11.67057 85.59296 35906 ft 497 kts 294°
2026-04-20 17:16 11.70141 85.53016 35905 ft 497 kts 294°
2026-04-20 17:17 11.73237 85.46705 35902 ft 497 kts 294°
2026-04-20 17:17 11.76345 85.40368 35900 ft 497 kts 294°
2026-04-20 17:18 11.79415 85.34102 35902 ft 497 kts 294°
2026-04-20 17:18 11.82505 85.27793 35898 ft 496 kts 294°
2026-04-20 17:19 11.85597 85.21474 35903 ft 496 kts 294°
2026-04-20 17:19 11.88665 85.15201 35901 ft 496 kts 294°
2026-04-20 17:20 11.91749 85.08890 35900 ft 496 kts 294°
2026-04-20 17:20 11.94813 85.02616 35903 ft 495 kts 294°
2026-04-20 17:21 11.97894 84.96303 35900 ft 495 kts 294°
2026-04-20 17:21 12.00971 84.89994 35904 ft 495 kts 294°
2026-04-20 17:22 12.04024 84.83729 35898 ft 495 kts 294°
2026-04-20 17:22 12.07092 84.77429 35898 ft 494 kts 294°
2026-04-20 17:23 12.10152 84.71143 35897 ft 494 kts 294°
2026-04-20 17:23 12.13198 84.64878 35896 ft 494 kts 294°
2026-04-20 17:24 12.16267 84.58565 35896 ft 494 kts 293°
2026-04-20 17:24 12.19317 84.52284 35895 ft 494 kts 293°
2026-04-20 17:25 12.22358 84.46019 35895 ft 494 kts 293°
2026-04-20 17:25 12.25421 84.39703 35895 ft 494 kts 293°
2026-04-20 17:26 12.28457 84.33440 35894 ft 494 kts 293°
2026-04-20 17:26 12.31509 84.27138 35896 ft 494 kts 293°
2026-04-20 17:27 12.34561 84.20833 35896 ft 494 kts 293°
2026-04-20 17:27 12.37609 84.14530 35895 ft 494 kts 293°
2026-04-20 17:28 12.40638 84.08263 35893 ft 494 kts 293°
2026-04-20 17:28 12.43688 84.01948 35892 ft 494 kts 293°
2026-04-20 17:29 12.46728 83.95648 35897 ft 494 kts 293°
2026-04-20 17:29 12.49777 83.89325 35897 ft 494 kts 293°
2026-04-20 17:30 12.52803 83.83048 35896 ft 494 kts 293°
2026-04-20 17:30 12.55840 83.76741 35892 ft 494 kts 293°
2026-04-20 17:31 12.58875 83.70436 35895 ft 493 kts 293°
2026-04-20 17:31 12.61915 83.64118 35888 ft 493 kts 292°
2026-04-20 17:32 12.64926 83.57857 35892 ft 493 kts 292°
2026-04-20 17:32 12.67991 83.51560 35894 ft 493 kts 294°
2026-04-20 17:33 12.71131 83.45312 35893 ft 493 kts 294°
2026-04-20 17:33 12.74266 83.39060 35894 ft 492 kts 294°
2026-04-20 17:34 12.77365 83.32850 35895 ft 491 kts 294°
2026-04-20 17:34 12.80476 83.26608 35893 ft 491 kts 293°
2026-04-20 17:35 12.83567 83.20403 35887 ft 490 kts 293°
2026-04-20 17:35 12.86666 83.14178 35884 ft 490 kts 293°
2026-04-20 17:36 12.89765 83.07946 35881 ft 489 kts 293°
2026-04-20 17:36 12.92840 83.01760 35878 ft 489 kts 293°
2026-04-20 17:37 12.95934 82.95530 35884 ft 489 kts 293°
2026-04-20 17:37 12.99029 82.89293 35886 ft 490 kts 293°
2026-04-20 17:38 13.02124 82.83054 35891 ft 490 kts 293°
2026-04-20 17:38 13.05198 82.76850 35890 ft 490 kts 293°
2026-04-20 17:39 13.08286 82.70615 35889 ft 490 kts 293°
2026-04-20 17:39 13.11373 82.64378 35884 ft 490 kts 293°
2026-04-20 17:40 13.14443 82.58169 35887 ft 490 kts 293°
2026-04-20 17:40 13.17530 82.51922 35887 ft 490 kts 293°
2026-04-20 17:41 13.20610 82.45685 35893 ft 490 kts 293°
2026-04-20 17:41 13.23693 82.39437 35881 ft 489 kts 293°
2026-04-20 17:42 13.26754 82.33228 35882 ft 489 kts 293°
2026-04-20 17:42 13.29809 82.27027 35879 ft 489 kts 293°
2026-04-20 17:43 13.32874 82.20800 35878 ft 488 kts 293°
2026-04-20 17:43 13.35943 82.14561 35877 ft 488 kts 293°
2026-04-20 17:44 13.38989 82.08366 35871 ft 488 kts 293°
2026-04-20 17:44 13.42047 82.02141 35872 ft 487 kts 293°
2026-04-20 17:45 13.44587 81.96964 35872 ft 487 kts 292°
2026-04-20 17:45 13.47640 81.90741 35873 ft 487 kts 292°
2026-04-20 17:46 13.50692 81.84514 35872 ft 487 kts 292°
2026-04-20 17:46 13.53722 81.78327 35873 ft 487 kts 292°
2026-04-20 17:47 13.56773 81.72092 35872 ft 487 kts 292°
2026-04-20 17:47 13.59826 81.65850 35873 ft 487 kts 292°
2026-04-20 17:48 13.62854 81.59654 35873 ft 487 kts 292°
2026-04-20 17:48 13.65887 81.53442 35870 ft 487 kts 292°
2026-04-20 17:49 13.68929 81.47209 35873 ft 487 kts 292°
2026-04-20 17:49 13.71975 81.40971 35868 ft 487 kts 292°
2026-04-20 17:50 13.75027 81.34729 35869 ft 487 kts 292°
2026-04-20 17:50 13.78061 81.28519 35871 ft 487 kts 292°
2026-04-20 17:51 13.81109 81.22275 35862 ft 487 kts 292°
2026-04-20 17:51 13.84149 81.16043 35865 ft 487 kts 292°
2026-04-20 17:52 13.87175 81.09834 35864 ft 487 kts 292°
2026-04-20 17:52 13.90221 81.03578 35864 ft 487 kts 292°
2026-04-20 17:53 13.93237 80.97379 35860 ft 487 kts 292°
2026-04-20 17:53 13.96278 80.91127 35857 ft 487 kts 292°
2026-04-20 17:54 13.99309 80.84886 35860 ft 487 kts 292°
2026-04-20 17:54 14.02366 80.78696 35854 ft 487 kts 293°
2026-04-20 17:55 14.05514 80.72511 35861 ft 487 kts 293°
2026-04-20 17:55 14.08647 80.66333 35858 ft 487 kts 293°
2026-04-20 17:56 14.11765 80.60158 35862 ft 487 kts 292°
2026-04-20 17:56 14.14887 80.53963 35862 ft 487 kts 292°
2026-04-20 17:57 14.18011 80.47761 35855 ft 487 kts 292°
2026-04-20 17:57 14.21134 80.41556 35845 ft 487 kts 292°
2026-04-20 17:58 14.24233 80.35393 35847 ft 487 kts 292°
2026-04-20 17:58 14.27352 80.29186 35844 ft 487 kts 292°
2026-04-20 17:59 14.30471 80.22975 35849 ft 487 kts 292°
2026-04-20 17:59 14.33573 80.16791 35853 ft 487 kts 292°
2026-04-20 18:00 14.36685 80.10584 35854 ft 487 kts 292°
2026-04-20 18:00 14.39798 80.04369 35854 ft 487 kts 292°
2026-04-20 18:01 14.42894 79.98184 35869 ft 487 kts 292°
2026-04-20 18:01 14.46008 79.91958 35857 ft 487 kts 292°
2026-04-20 18:02 14.49115 79.85739 35865 ft 487 kts 292°
2026-04-20 18:02 14.52207 79.79546 35860 ft 487 kts 292°
2026-04-20 18:03 14.55313 79.73321 35858 ft 487 kts 292°
2026-04-20 18:03 14.58420 79.67088 35866 ft 487 kts 292°
2026-04-20 18:04 14.61520 79.60863 35866 ft 487 kts 292°
2026-04-20 18:04 14.64604 79.54668 35869 ft 487 kts 292°
2026-04-20 18:05 14.69258 79.45308 35871 ft 487 kts 291°
2026-04-20 18:05 14.72329 79.39123 35870 ft 487 kts 291°
2026-04-20 18:06 14.75424 79.32888 35873 ft 487 kts 291°
2026-04-20 18:06 14.78512 79.26659 35875 ft 487 kts 291°
2026-04-20 18:07 14.81598 79.20431 35879 ft 487 kts 291°
2026-04-20 18:07 14.84675 79.14215 35881 ft 487 kts 291°
2026-04-20 18:08 14.87740 79.07990 35870 ft 485 kts 291°
2026-04-20 18:08 14.90802 79.01811 35878 ft 485 kts 291°
2026-04-20 18:09 14.93883 78.95582 35890 ft 486 kts 291°
2026-04-20 18:09 14.96968 78.89330 35896 ft 487 kts 291°
2026-04-20 18:10 15.00027 78.83125 35902 ft 487 kts 291°
2026-04-20 18:10 15.03113 78.76860 35899 ft 488 kts 291°
2026-04-20 18:11 15.06197 78.70593 35904 ft 488 kts 291°
2026-04-20 18:11 15.09260 78.64365 35908 ft 487 kts 291°
2026-04-20 18:12 15.12335 78.58106 35908 ft 487 kts 291°
2026-04-20 18:12 15.15407 78.51848 35909 ft 486 kts 291°
2026-04-20 18:13 15.18453 78.45639 35908 ft 486 kts 291°
2026-04-20 18:13 15.21515 78.39390 35904 ft 485 kts 291°
2026-04-20 18:14 15.24575 78.33140 35906 ft 485 kts 290°
2026-04-20 18:14 15.27607 78.26942 35906 ft 485 kts 290°
2026-04-20 18:15 15.30656 78.20706 35911 ft 484 kts 290°
2026-04-20 18:15 15.33685 78.14506 35921 ft 484 kts 290°
2026-04-20 18:16 15.36726 78.08275 35930 ft 484 kts 290°
2026-04-20 18:16 15.39730 78.02013 35930 ft 484 kts 290°
2026-04-20 18:17 15.42707 77.95790 35926 ft 484 kts 290°
2026-04-20 18:17 15.45700 77.89542 35923 ft 484 kts 290°
2026-04-20 18:18 15.48695 77.83290 35917 ft 483 kts 290°
2026-04-20 18:18 15.51688 77.77035 35924 ft 483 kts 290°
2026-04-20 18:19 15.54660 77.70819 35910 ft 483 kts 290°
2026-04-20 18:19 15.57642 77.64578 35918 ft 483 kts 290°
2026-04-20 18:20 15.60630 77.58317 35922 ft 483 kts 290°
2026-04-20 18:20 15.63591 77.52108 35909 ft 482 kts 290°
2026-04-20 18:21 15.66563 77.45870 35914 ft 482 kts 290°
2026-04-20 18:21 15.69534 77.39629 35899 ft 482 kts 290°
2026-04-20 18:22 15.72505 77.33384 35911 ft 482 kts 290°
2026-04-20 18:22 15.75496 77.27147 35898 ft 482 kts 290°
2026-04-20 18:23 15.78469 77.20953 35902 ft 483 kts 290°
2026-04-20 18:23 15.81466 77.14695 35906 ft 483 kts 290°
2026-04-20 18:24 15.84452 77.08451 35904 ft 484 kts 290°
2026-04-20 18:24 15.87450 77.02177 35908 ft 484 kts 290°
2026-04-20 18:25 15.90447 76.95900 35916 ft 485 kts 290°
2026-04-20 18:25 15.93429 76.89650 35922 ft 485 kts 289°
2026-04-20 18:26 15.96422 76.83371 35917 ft 485 kts 289°
2026-04-20 18:26 15.99399 76.77119 35917 ft 484 kts 289°
2026-04-20 18:27 16.02386 76.70840 35912 ft 484 kts 289°
2026-04-20 18:27 16.05369 76.64565 35906 ft 483 kts 289°
2026-04-20 18:28 16.08352 76.58283 35902 ft 483 kts 289°
2026-04-20 18:28 16.11325 76.52017 35901 ft 483 kts 289°
2026-04-20 18:29 16.14281 76.45779 35899 ft 483 kts 289°
2026-04-20 18:29 16.17256 76.39499 35899 ft 483 kts 289°
2026-04-20 18:30 16.20227 76.33219 35899 ft 483 kts 289°
2026-04-20 18:30 16.23184 76.26961 35903 ft 484 kts 289°
2026-04-20 18:31 16.26155 76.20672 35899 ft 484 kts 289°
2026-04-20 18:31 16.29130 76.14366 35903 ft 484 kts 289°
2026-04-20 18:32 16.32103 76.08058 35902 ft 484 kts 289°
2026-04-20 18:32 16.35054 76.01793 35903 ft 484 kts 289°
2026-04-20 18:33 16.37518 75.96543 35901 ft 484 kts 288°
2026-04-20 18:33 16.40928 75.89198 35894 ft 484 kts 288°
2026-04-20 18:34 16.43380 75.83915 35892 ft 484 kts 288°
2026-04-20 18:34 16.46295 75.77635 35894 ft 484 kts 288°
2026-04-20 18:35 16.49221 75.71328 35890 ft 483 kts 288°
2026-04-20 18:35 16.52148 75.65011 35893 ft 483 kts 288°
2026-04-20 18:36 16.55072 75.58698 35888 ft 483 kts 288°
2026-04-20 18:36 16.57972 75.52427 35887 ft 482 kts 288°
2026-04-20 18:37 16.60886 75.46121 35886 ft 482 kts 288°
2026-04-20 18:37 16.63980 75.39892 35890 ft 484 kts 290°
2026-04-20 18:38 16.67160 75.33685 35890 ft 483 kts 290°
2026-04-20 18:38 16.70283 75.27513 35891 ft 483 kts 290°
2026-04-20 18:39 16.73412 75.21294 35891 ft 482 kts 290°
2026-04-20 18:39 16.76528 75.15092 35890 ft 482 kts 290°
2026-04-20 18:40 16.79623 75.08927 35886 ft 482 kts 290°
2026-04-20 18:40 16.82733 75.02727 35876 ft 481 kts 290°
2026-04-20 18:41 16.85826 74.96554 35875 ft 481 kts 290°
2026-04-20 18:41 16.88926 74.90362 35873 ft 481 kts 290°
2026-04-20 18:42 16.92025 74.84165 35868 ft 480 kts 290°
2026-04-20 18:42 16.95116 74.77982 35875 ft 480 kts 290°
2026-04-20 18:43 16.98201 74.71801 35878 ft 479 kts 290°
2026-04-20 18:43 17.01266 74.65656 35884 ft 479 kts 290°
2026-04-20 18:44 17.04346 74.59475 35881 ft 479 kts 290°
2026-04-20 18:44 17.07427 74.53286 35884 ft 479 kts 290°
2026-04-20 18:45 17.10493 74.47123 35890 ft 479 kts 290°
2026-04-20 18:45 17.13568 74.40936 35887 ft 479 kts 290°
2026-04-20 18:46 17.16640 74.34748 35891 ft 478 kts 290°
2026-04-20 18:46 17.19690 74.28598 35893 ft 478 kts 290°
2026-04-20 18:47 17.22756 74.22414 35898 ft 478 kts 290°
2026-04-20 18:47 17.25804 74.16263 35900 ft 478 kts 290°
2026-04-20 18:48 17.28863 74.10088 35904 ft 477 kts 289°
2026-04-20 18:48 17.31903 74.03941 35905 ft 477 kts 290°
2026-04-20 18:49 17.34955 73.97768 35906 ft 476 kts 290°
2026-04-20 18:49 17.37998 73.91602 35905 ft 476 kts 289°
2026-04-20 18:50 17.41021 73.85474 35906 ft 477 kts 289°
2026-04-20 18:50 17.44063 73.79301 35891 ft 476 kts 289°
2026-04-20 18:51 17.47103 73.73127 35890 ft 476 kts 289°
2026-04-20 18:51 17.50133 73.66967 35893 ft 475 kts 289°
2026-04-20 18:52 17.53135 73.60857 35881 ft 474 kts 289°
2026-04-20 18:52 17.56149 73.54717 35880 ft 474 kts 289°
2026-04-20 18:53 17.59169 73.48559 35869 ft 474 kts 289°
2026-04-20 18:53 17.62183 73.42408 35872 ft 474 kts 289°
2026-04-20 18:54 17.65180 73.36284 35865 ft 474 kts 289°
2026-04-20 18:54 17.68202 73.30103 35867 ft 474 kts 289°
2026-04-20 18:55 17.71204 73.23960 35863 ft 474 kts 289°
2026-04-20 18:55 17.74200 73.17816 35866 ft 474 kts 289°
2026-04-20 18:56 17.77210 73.11631 35864 ft 475 kts 289°
2026-04-20 18:56 17.80214 73.05463 35862 ft 475 kts 289°
2026-04-20 18:57 17.83223 72.99280 35861 ft 475 kts 289°
2026-04-20 18:57 17.86208 72.93139 35859 ft 474 kts 289°
2026-04-20 18:58 17.89205 72.86965 35857 ft 474 kts 289°
2026-04-20 18:58 17.92201 72.80785 35857 ft 474 kts 289°
2026-04-20 18:59 17.95198 72.74598 35856 ft 474 kts 289°
2026-04-20 18:59 17.98167 72.68462 35857 ft 475 kts 289°
2026-04-20 19:00 18.01166 72.62259 35859 ft 475 kts 289°
2026-04-20 19:00 18.04161 72.56057 36051 ft 475 kts 289°
2026-04-20 19:01 18.05639 72.52996 36163 ft 475 kts 289°
2026-04-20 19:01 18.07136 72.49894 36293 ft 475 kts 289°
2026-04-20 19:01 18.08627 72.46801 36418 ft 475 kts 289°
2026-04-20 19:01 18.10119 72.43704 36539 ft 475 kts 289°
2026-04-20 19:02 18.11613 72.40600 36241 ft 475 kts 289°
2026-04-20 19:02 18.13096 72.37523 35873 ft 472 kts 289°
2026-04-20 19:02 18.14578 72.34444 35731 ft 471 kts 289°
2026-04-20 19:02 18.16059 72.31360 35822 ft 475 kts 289°
2026-04-20 19:03 18.17554 72.28246 35949 ft 476 kts 290°
2026-04-20 19:03 18.19047 72.25141 36069 ft 476 kts 290°
2026-04-20 19:03 18.20539 72.22034 36193 ft 476 kts 290°
2026-04-20 19:03 18.22038 72.18914 36316 ft 476 kts 289°
2026-04-20 19:04 18.23511 72.15842 36511 ft 477 kts 289°
2026-04-20 19:04 18.25003 72.12732 36764 ft 477 kts 289°
2026-04-20 19:04 18.26495 72.09619 37018 ft 476 kts 289°
2026-04-20 19:04 18.27992 72.06494 37289 ft 476 kts 289°
2026-04-20 19:05 18.29485 72.03375 37541 ft 476 kts 289°
2026-04-20 19:05 18.30971 72.00271 37790 ft 476 kts 289°
2026-04-20 19:05 18.33928 71.94087 37863 ft 474 kts 289°
2026-04-20 19:06 18.36888 71.87888 37862 ft 474 kts 289°
2026-04-20 19:06 18.39849 71.81681 37860 ft 474 kts 289°
2026-04-20 19:07 18.42803 71.75484 37864 ft 475 kts 289°
2026-04-20 19:07 18.45767 71.69258 37864 ft 475 kts 289°
2026-04-20 19:08 18.50195 71.59946 37869 ft 476 kts 289°
2026-04-20 19:09 18.53168 71.53687 37868 ft 477 kts 289°
2026-04-20 19:09 18.56130 71.47444 37868 ft 477 kts 289°
2026-04-20 19:10 18.59106 71.41167 37865 ft 477 kts 289°
2026-04-20 19:10 18.62070 71.34906 37864 ft 477 kts 289°
2026-04-20 19:11 18.65033 71.28640 37857 ft 477 kts 290°
2026-04-20 19:11 18.67985 71.22392 37861 ft 477 kts 290°
2026-04-20 19:12 18.70949 71.16112 37865 ft 477 kts 290°
2026-04-20 19:12 18.73899 71.09856 37846 ft 478 kts 290°
2026-04-20 19:13 18.76865 71.03557 37851 ft 478 kts 290°
2026-04-20 19:13 18.79823 70.97270 37846 ft 479 kts 290°
2026-04-20 19:14 18.82790 70.90958 37854 ft 479 kts 290°
2026-04-20 19:14 18.85737 70.84679 37852 ft 480 kts 290°
2026-04-20 19:15 18.88701 70.78360 37851 ft 480 kts 290°
2026-04-20 19:15 18.91670 70.72022 37853 ft 481 kts 290°
2026-04-20 19:16 18.94615 70.65729 37853 ft 481 kts 291°
2026-04-20 19:16 18.97595 70.59354 37853 ft 482 kts 291°
2026-04-20 19:17 19.00543 70.53041 37857 ft 482 kts 291°
2026-04-20 19:17 19.03510 70.46681 37860 ft 482 kts 291°
2026-04-20 19:18 19.06481 70.40304 37857 ft 482 kts 291°
2026-04-20 19:18 19.09447 70.33931 37862 ft 483 kts 291°
2026-04-20 19:19 19.12394 70.27594 37861 ft 483 kts 291°
2026-04-20 19:19 19.15362 70.21203 37867 ft 483 kts 291°
2026-04-20 19:20 19.17829 70.15886 37863 ft 483 kts 291°
2026-04-20 19:20 19.21274 70.08452 37869 ft 483 kts 291°
2026-04-20 19:21 19.23735 70.03135 37858 ft 483 kts 291°
2026-04-20 19:21 19.26691 69.96744 37868 ft 483 kts 292°
2026-04-20 19:22 19.29644 69.90350 37876 ft 483 kts 292°
2026-04-20 19:22 19.32594 69.83958 37869 ft 482 kts 292°
2026-04-20 19:23 19.35534 69.77579 37869 ft 482 kts 292°
2026-04-20 19:23 19.38475 69.71191 37878 ft 482 kts 292°
2026-04-20 19:24 19.41393 69.64846 37878 ft 481 kts 292°
2026-04-20 19:24 19.44331 69.58450 37874 ft 481 kts 292°
2026-04-20 19:25 19.47253 69.52083 37878 ft 480 kts 292°
2026-04-20 19:25 19.50175 69.45711 37871 ft 480 kts 292°
2026-04-20 19:26 19.53073 69.39385 37878 ft 479 kts 292°
2026-04-20 19:26 19.55999 69.33013 37879 ft 479 kts 293°
2026-04-20 19:27 19.59020 69.26741 37880 ft 479 kts 294°
2026-04-20 19:27 19.62071 69.20446 37877 ft 479 kts 294°
2026-04-20 19:28 19.65107 69.14143 37879 ft 479 kts 294°
2026-04-20 19:28 19.68111 69.07887 37878 ft 479 kts 294°
2026-04-20 19:29 19.71134 69.01581 37879 ft 478 kts 294°
2026-04-20 19:29 19.74158 68.95265 37885 ft 478 kts 294°
2026-04-20 19:30 19.77156 68.88997 37885 ft 478 kts 294°
2026-04-20 19:30 19.80169 68.82692 37886 ft 478 kts 295°
2026-04-20 19:31 19.83176 68.76392 37884 ft 478 kts 295°
2026-04-20 19:31 19.86165 68.70122 37887 ft 478 kts 295°
2026-04-20 19:32 19.89166 68.63819 37888 ft 478 kts 295°
2026-04-20 19:32 19.92149 68.57550 37889 ft 478 kts 295°
2026-04-20 19:33 19.95152 68.51230 37892 ft 478 kts 295°
2026-04-20 19:33 19.98150 68.44912 37887 ft 478 kts 295°
2026-04-20 19:34 20.01143 68.38600 37892 ft 478 kts 295°
2026-04-20 19:34 20.04120 68.32312 37885 ft 478 kts 295°
2026-04-20 19:35 20.07114 68.25985 37883 ft 478 kts 295°
2026-04-20 19:35 20.10108 68.19647 37885 ft 479 kts 296°
2026-04-20 19:36 20.13084 68.13342 37893 ft 479 kts 296°
2026-04-20 19:36 20.16076 68.06994 37894 ft 479 kts 296°
2026-04-20 19:37 20.19063 68.00651 37891 ft 480 kts 296°
2026-04-20 19:37 20.22038 67.94326 37889 ft 480 kts 296°
2026-04-20 19:38 20.25032 67.87953 37893 ft 480 kts 296°
2026-04-20 19:38 20.28021 67.81583 37888 ft 480 kts 296°
2026-04-20 19:39 20.30991 67.75246 37887 ft 481 kts 296°
2026-04-20 19:39 20.33983 67.68856 37888 ft 481 kts 296°
2026-04-20 19:40 20.36980 67.62446 37890 ft 482 kts 296°
2026-04-20 19:40 20.39965 67.56096 37886 ft 481 kts 296°
2026-04-20 19:41 20.42933 67.49715 37887 ft 482 kts 296°
2026-04-20 19:41 20.45915 67.43296 37882 ft 481 kts 296°
2026-04-20 19:42 20.48880 67.36927 37882 ft 482 kts 296°
2026-04-20 19:42 20.51868 67.30515 37885 ft 482 kts 296°
2026-04-20 19:43 20.54851 67.24070 37885 ft 484 kts 297°
2026-04-20 19:43 20.57826 67.17652 37902 ft 486 kts 297°
2026-04-20 19:44 20.60832 67.11167 37908 ft 487 kts 297°
2026-04-20 19:44 20.63848 67.04651 37913 ft 488 kts 297°
2026-04-20 19:45 20.66838 66.98180 37916 ft 489 kts 297°
2026-04-20 19:45 20.69855 66.91644 37911 ft 489 kts 297°
2026-04-20 19:46 20.72860 66.85127 37908 ft 489 kts 297°
2026-04-20 19:46 20.75863 66.78603 37903 ft 489 kts 297°
2026-04-20 19:47 20.78847 66.72115 37903 ft 488 kts 297°
2026-04-20 19:47 20.81844 66.65590 37897 ft 488 kts 297°
2026-04-20 19:48 20.84836 66.59068 37898 ft 488 kts 297°
2026-04-20 19:48 20.87806 66.52587 37896 ft 488 kts 297°
2026-04-20 19:49 20.90795 66.46055 37893 ft 488 kts 297°
2026-04-20 19:49 20.93763 66.39562 37890 ft 488 kts 297°
2026-04-20 19:50 20.96741 66.33039 37891 ft 488 kts 297°
2026-04-20 19:50 20.99722 66.26501 37893 ft 488 kts 297°
2026-04-20 19:51 21.02680 66.20005 37894 ft 488 kts 297°
2026-04-20 19:51 21.05660 66.13454 37896 ft 488 kts 297°
2026-04-20 19:52 21.08616 66.06951 37889 ft 488 kts 297°
2026-04-20 19:52 21.11590 66.00401 37890 ft 488 kts 297°
2026-04-20 19:53 21.14625 65.93877 37892 ft 488 kts 298°
2026-04-20 19:53 21.17700 65.87395 37899 ft 488 kts 298°
2026-04-20 19:54 21.20749 65.80940 37893 ft 488 kts 298°
2026-04-20 19:54 21.23818 65.74416 37894 ft 488 kts 298°
2026-04-20 19:55 21.26869 65.67917 37891 ft 488 kts 298°
2026-04-20 19:55 21.29903 65.61446 37892 ft 488 kts 298°
2026-04-20 19:56 21.32441 65.56028 37892 ft 488 kts 298°
2026-04-20 19:56 21.36000 65.48419 37888 ft 488 kts 298°
2026-04-20 19:57 21.39028 65.41939 37889 ft 488 kts 298°
2026-04-20 19:57 21.42070 65.35420 37888 ft 488 kts 298°
2026-04-20 19:58 21.45115 65.28887 37886 ft 488 kts 298°
2026-04-20 19:58 21.48149 65.22368 37884 ft 487 kts 298°
2026-04-20 19:59 21.51164 65.15884 37886 ft 487 kts 298°
2026-04-20 19:59 21.54190 65.09366 37885 ft 487 kts 298°
2026-04-20 20:00 21.57195 65.02885 37882 ft 487 kts 298°
2026-04-20 20:00 21.60225 64.96344 37882 ft 487 kts 298°
2026-04-20 20:01 21.63248 64.89808 37881 ft 487 kts 298°
2026-04-20 20:01 21.66250 64.83300 37875 ft 487 kts 298°
2026-04-20 20:02 21.69264 64.76776 37883 ft 488 kts 298°
2026-04-20 20:02 21.72280 64.70234 37881 ft 488 kts 297°
2026-04-20 20:03 21.75283 64.63708 37881 ft 489 kts 297°
2026-04-20 20:03 21.78304 64.57135 37881 ft 489 kts 297°
2026-04-20 20:04 21.81308 64.50593 37884 ft 489 kts 297°
2026-04-20 20:04 21.84324 64.44013 37880 ft 489 kts 297°
2026-04-20 20:05 21.87334 64.37438 37881 ft 489 kts 297°
2026-04-20 20:05 21.90344 64.30858 37880 ft 489 kts 297°
2026-04-20 20:06 21.93333 64.24312 37879 ft 489 kts 297°
2026-04-20 20:06 21.96338 64.17724 37879 ft 489 kts 297°
2026-04-20 20:07 21.99335 64.11144 37874 ft 489 kts 297°
2026-04-20 20:07 22.02315 64.04592 37877 ft 488 kts 297°
2026-04-20 20:08 22.05305 63.98011 37878 ft 488 kts 297°
2026-04-20 20:08 22.07786 63.92545 37875 ft 488 kts 297°
2026-04-20 20:09 22.11255 63.84891 37873 ft 487 kts 297°
2026-04-20 20:09 22.13749 63.79379 37877 ft 487 kts 297°
2026-04-20 20:10 22.16705 63.72840 37874 ft 487 kts 297°
2026-04-20 20:10 22.19671 63.66270 37871 ft 486 kts 297°
2026-04-20 20:11 22.22617 63.59737 37875 ft 486 kts 297°
2026-04-20 20:11 22.25578 63.53162 37871 ft 485 kts 297°
2026-04-20 20:12 22.28511 63.46639 37877 ft 485 kts 297°
2026-04-20 20:12 22.31455 63.40084 37878 ft 484 kts 297°
2026-04-20 20:13 22.35862 63.30256 37873 ft 483 kts 297°
2026-04-20 20:13 22.38768 63.23763 37870 ft 483 kts 297°
2026-04-20 20:14 22.41697 63.17214 37874 ft 482 kts 297°
2026-04-20 20:14 22.44559 63.10701 37880 ft 482 kts 294°
2026-04-20 20:15 22.47147 63.04008 37876 ft 481 kts 294°
2026-04-20 20:15 22.49766 62.97343 37875 ft 480 kts 294°
2026-04-20 20:16 22.52350 62.90736 37871 ft 479 kts 294°
2026-04-20 20:16 22.54948 62.84070 37866 ft 479 kts 294°
2026-04-20 20:17 22.57518 62.77465 37862 ft 478 kts 294°
2026-04-20 20:17 22.60099 62.70820 37868 ft 478 kts 294°
2026-04-20 20:18 22.62671 62.64190 37860 ft 477 kts 294°
2026-04-20 20:18 22.65231 62.57583 37864 ft 477 kts 294°
2026-04-20 20:19 22.67783 62.50986 37858 ft 476 kts 294°
2026-04-20 20:19 22.70341 62.44363 37859 ft 476 kts 294°
2026-04-20 20:20 22.72879 62.37784 37854 ft 475 kts 294°
2026-04-20 20:20 22.75429 62.31162 37851 ft 475 kts 294°
2026-04-20 20:21 22.77969 62.24557 37855 ft 475 kts 294°
2026-04-20 20:21 22.80497 62.17977 37850 ft 475 kts 294°
2026-04-20 20:22 22.83033 62.11362 37848 ft 474 kts 293°
2026-04-20 20:22 22.85566 62.04749 37849 ft 474 kts 293°
2026-04-20 20:23 22.88095 61.98135 37859 ft 474 kts 293°
2026-04-20 20:23 22.90607 61.91558 37851 ft 474 kts 293°
2026-04-20 20:24 22.93136 61.84923 37844 ft 474 kts 293°
2026-04-20 20:24 22.95635 61.78360 37850 ft 473 kts 293°
2026-04-20 20:25 22.98153 61.71736 37848 ft 473 kts 293°
2026-04-20 20:25 23.00666 61.65116 37851 ft 473 kts 293°
2026-04-20 20:26 23.03156 61.58547 37845 ft 473 kts 293°
2026-04-20 20:26 23.05665 61.51920 37845 ft 473 kts 292°
2026-04-20 20:27 23.08154 61.45335 37844 ft 473 kts 292°
2026-04-20 20:27 23.10665 61.38704 37852 ft 472 kts 292°
2026-04-20 20:28 23.13142 61.32127 37840 ft 472 kts 292°
2026-04-20 20:28 23.15627 61.25496 37838 ft 473 kts 292°
2026-04-20 20:29 23.18108 61.18898 37848 ft 474 kts 291°
2026-04-20 20:29 23.20601 61.12256 37843 ft 474 kts 291°
2026-04-20 20:30 23.23096 61.05596 37853 ft 475 kts 291°
2026-04-20 20:30 23.25572 60.98976 37844 ft 475 kts 291°
2026-04-20 20:31 23.28060 60.92316 37840 ft 475 kts 291°
2026-04-20 20:31 23.30549 60.85639 37844 ft 475 kts 291°
2026-04-20 20:32 23.33035 60.78964 37850 ft 475 kts 291°
2026-04-20 20:32 23.35496 60.72344 37854 ft 475 kts 291°
2026-04-20 20:33 23.37972 60.65680 37856 ft 474 kts 291°
2026-04-20 20:33 23.40436 60.58989 37853 ft 474 kts 291°
2026-04-20 20:34 23.42856 60.52362 37848 ft 474 kts 291°
2026-04-20 20:34 23.45298 60.45676 37844 ft 473 kts 291°
2026-04-20 20:35 23.47718 60.39044 37827 ft 473 kts 291°
2026-04-20 20:35 23.50145 60.32384 37827 ft 473 kts 291°
2026-04-20 20:36 23.52572 60.25714 37827 ft 472 kts 291°
2026-04-20 20:36 23.54987 60.19067 37837 ft 472 kts 292°
2026-04-20 20:37 23.57405 60.12400 37844 ft 471 kts 292°
2026-04-20 20:37 23.59800 60.05787 37840 ft 471 kts 292°
2026-04-20 20:38 23.62202 59.99146 37840 ft 470 kts 292°
2026-04-20 20:38 23.64591 59.92531 37837 ft 470 kts 292°
2026-04-20 20:39 23.66988 59.85882 37831 ft 469 kts 292°
2026-04-20 20:39 23.69360 59.79292 37831 ft 469 kts 292°
2026-04-20 20:40 23.71735 59.72685 37828 ft 468 kts 292°
2026-04-20 20:40 23.74109 59.66069 37830 ft 468 kts 293°
2026-04-20 20:41 23.76483 59.59444 37832 ft 467 kts 293°
2026-04-20 20:41 23.78845 59.52840 37833 ft 467 kts 293°
2026-04-20 20:42 23.81197 59.46256 37834 ft 466 kts 293°
2026-04-20 20:42 23.83536 59.39696 37833 ft 466 kts 293°
2026-04-20 20:43 23.85882 59.33107 37836 ft 465 kts 293°
2026-04-20 20:43 23.88220 59.26532 37841 ft 464 kts 293°
2026-04-20 20:44 23.90556 59.19951 37843 ft 463 kts 293°
2026-04-20 20:44 23.92866 59.13435 37846 ft 461 kts 293°
2026-04-20 20:45 23.95035 59.06832 37845 ft 461 kts 291°
2026-04-20 20:45 23.97119 59.00212 37850 ft 459 kts 291°
2026-04-20 20:46 23.99218 58.93625 37846 ft 458 kts 292°
2026-04-20 20:46 24.01318 58.87062 37841 ft 456 kts 292°
2026-04-20 20:47 24.03399 58.80551 37841 ft 455 kts 292°
2026-04-20 20:47 24.05485 58.74012 37837 ft 453 kts 292°
2026-04-20 20:48 24.07543 58.67550 37834 ft 452 kts 292°
2026-04-20 20:48 24.09606 58.61061 37832 ft 450 kts 292°
2026-04-20 20:49 24.11665 58.54576 37828 ft 449 kts 292°
2026-04-20 20:49 24.13710 58.48119 37825 ft 448 kts 292°
2026-04-20 20:50 24.15734 58.41724 37830 ft 446 kts 291°
2026-04-20 20:50 24.17758 58.35315 37811 ft 445 kts 291°
2026-04-20 20:51 24.19780 58.28904 37813 ft 444 kts 291°
2026-04-20 20:51 24.21796 58.22499 37812 ft 443 kts 291°
2026-04-20 20:52 24.23789 58.16158 37815 ft 442 kts 291°
2026-04-20 20:52 24.25790 58.09782 37813 ft 441 kts 291°
2026-04-20 20:53 24.27783 58.03419 37810 ft 440 kts 291°
2026-04-20 20:53 24.29757 57.97108 37819 ft 440 kts 291°
2026-04-20 20:54 24.31742 57.90750 37816 ft 439 kts 291°
2026-04-20 20:54 24.33719 57.84409 37817 ft 438 kts 291°
2026-04-20 20:55 24.35676 57.78122 37817 ft 437 kts 291°
2026-04-20 20:55 24.37639 57.71802 37821 ft 437 kts 291°
2026-04-20 20:56 24.39590 57.65513 37817 ft 436 kts 291°
2026-04-20 20:56 24.41545 57.59201 37819 ft 435 kts 291°
2026-04-20 20:57 24.43492 57.52906 37823 ft 435 kts 291°
2026-04-20 20:57 24.45421 57.46655 37823 ft 434 kts 291°
2026-04-20 20:58 24.47355 57.40378 37826 ft 434 kts 291°
2026-04-20 20:58 24.48958 57.35169 37831 ft 433 kts 291°
2026-04-20 20:59 24.50885 57.28897 37835 ft 432 kts 291°
2026-04-20 20:59 24.52803 57.22645 37828 ft 431 kts 291°
2026-04-20 21:00 24.54704 57.16438 37828 ft 430 kts 291°
2026-04-20 21:00 24.56612 57.10196 37829 ft 429 kts 291°
2026-04-20 21:01 24.58496 57.04023 37637 ft 429 kts 291°
2026-04-20 21:01 24.59449 57.00899 37373 ft 430 kts 291°
2026-04-20 21:01 24.60394 56.97800 37114 ft 432 kts 291°
2026-04-20 21:02 24.61355 56.94644 36844 ft 435 kts 290°
2026-04-20 21:02 24.62320 56.91476 36463 ft 439 kts 290°
2026-04-20 21:02 24.63287 56.88289 36086 ft 442 kts 290°
2026-04-20 21:02 24.64368 56.85118 35722 ft 446 kts 295°
2026-04-20 21:03 24.65758 56.82050 35362 ft 450 kts 300°
2026-04-20 21:03 24.67384 56.79105 34889 ft 451 kts 301°
2026-04-20 21:03 24.69033 56.76145 33902 ft 459 kts 301°
2026-04-20 21:03 24.70707 56.73107 32870 ft 464 kts 300°
2026-04-20 21:04 24.72367 56.70087 32394 ft 456 kts 300°
2026-04-20 21:04 24.74005 56.67112 31806 ft 451 kts 300°
2026-04-20 21:04 24.75627 56.64166 31215 ft 447 kts 300°
2026-04-20 21:04 24.77211 56.61288 30657 ft 443 kts 300°
2026-04-20 21:05 24.78803 56.58394 30099 ft 439 kts 300°
2026-04-20 21:05 24.80371 56.55543 29447 ft 435 kts 300°
2026-04-20 21:05 24.81944 56.52678 28549 ft 437 kts 299°
2026-04-20 21:05 24.83512 56.49823 27877 ft 433 kts 299°
2026-04-20 21:06 24.85065 56.46993 27265 ft 429 kts 299°
2026-04-20 21:06 24.86602 56.44192 26628 ft 424 kts 299°
2026-04-20 21:06 24.87905 56.41298 25984 ft 419 kts 288°
2026-04-20 21:06 24.88559 56.38249 25392 ft 413 kts 276°
2026-04-20 21:07 24.88603 56.35128 24802 ft 409 kts 267°
2026-04-20 21:07 24.88364 56.31993 24209 ft 405 kts 264°
2026-04-20 21:07 24.88096 56.28907 23319 ft 407 kts 266°
2026-04-20 21:07 24.88262 56.25747 22181 ft 416 kts 280°
2026-04-20 21:08 24.89128 56.22714 21423 ft 414 kts 292°
2026-04-20 21:08 24.90436 56.19900 20731 ft 411 kts 297°
2026-04-20 21:08 24.91876 56.17190 20016 ft 408 kts 299°
2026-04-20 21:08 24.93306 56.14548 19495 ft 403 kts 299°
2026-04-20 21:09 24.94741 56.11858 18800 ft 403 kts 298°
2026-04-20 21:09 24.96129 56.09210 17921 ft 405 kts 298°
2026-04-20 21:09 24.97670 56.06613 17109 ft 403 kts 305°
2026-04-20 21:09 24.99454 56.04257 16387 ft 398 kts 311°
2026-04-20 21:10 25.01316 56.02014 15629 ft 394 kts 311°
2026-04-20 21:10 25.03145 55.99778 14994 ft 390 kts 311°
2026-04-20 21:10 25.04953 55.97557 14249 ft 387 kts 311°
2026-04-20 21:10 25.06734 55.95369 13779 ft 378 kts 312°
2026-04-20 21:11 25.08451 55.93256 13608 ft 360 kts 312°
2026-04-20 21:11 25.10083 55.91258 13458 ft 344 kts 312°
2026-04-20 21:11 25.11626 55.89361 13205 ft 327 kts 312°
2026-04-20 21:11 25.13108 55.87544 13042 ft 308 kts 312°
2026-04-20 21:12 25.14505 55.85828 12721 ft 296 kts 312°
2026-04-20 21:12 25.15819 55.84103 12163 ft 292 kts 305°
2026-04-20 21:12 25.16630 55.82698 11758 ft 289 kts 301°
2026-04-20 21:12 25.17666 55.80791 11183 ft 288 kts 302°
2026-04-20 21:13 25.18708 55.78915 10723 ft 283 kts 302°
2026-04-20 21:13 25.19700 55.77141 10582 ft 265 kts 302°
2026-04-20 21:13 25.20640 55.75458 10406 ft 250 kts 302°
2026-04-20 21:13 25.21538 55.73846 10092 ft 245 kts 303°
2026-04-20 21:14 25.22432 55.72239 9783 ft 243 kts 303°
2026-04-20 21:14 25.23278 55.70639 9327 ft 240 kts 294°
2026-04-20 21:14 25.23579 55.68815 8520 ft 255 kts 267°
2026-04-20 21:14 25.23009 55.66922 7808 ft 268 kts 238°
2026-04-20 21:15 25.21709 55.65444 7248 ft 273 kts 214°
2026-04-20 21:15 25.20068 55.64381 6720 ft 273 kts 212°
2026-04-20 21:15 25.18436 55.63387 6480 ft 261 kts 203°
2026-04-20 21:15 25.16684 55.63061 6153 ft 255 kts 172°
2026-04-20 21:16 25.15037 55.63715 6010 ft 253 kts 142°
2026-04-20 21:16 25.13868 55.65114 5877 ft 245 kts 122°
2026-04-20 21:16 25.12914 55.66670 5730 ft 245 kts 122°
2026-04-20 21:16 25.11978 55.68181 5595 ft 237 kts 122°
2026-04-20 21:17 25.11066 55.69649 5520 ft 225 kts 122°
2026-04-20 21:17 25.10136 55.70934 5136 ft 212 kts 139°
2026-04-20 21:17 25.08770 55.71570 4483 ft 216 kts 175°
2026-04-20 21:17 25.07328 55.71239 4097 ft 213 kts 212°
2026-04-20 21:18 25.06398 55.70043 4005 ft 204 kts 256°
2026-04-20 21:18 25.06492 55.68562 4006 ft 193 kts 301°
2026-04-20 21:18 25.07372 55.67479 4014 ft 190 kts 319°
2026-04-20 21:18 25.08339 55.66481 4003 ft 190 kts 316°
2026-04-20 21:19 25.09185 55.65377 4005 ft 191 kts 308°
2026-04-20 21:19 25.09931 55.64151 4002 ft 192 kts 304°
2026-04-20 21:19 25.10629 55.62900 3998 ft 192 kts 303°
2026-04-20 21:20 25.12023 55.60388 4002 ft 192 kts 303°
2026-04-20 21:20 25.12721 55.59128 3944 ft 192 kts 303°
2026-04-20 21:20 25.13420 55.57866 3724 ft 191 kts 303°
2026-04-20 21:20 25.14109 55.56622 3469 ft 189 kts 303°
2026-04-20 21:21 25.14791 55.55389 3240 ft 187 kts 302°
2026-04-20 21:21 25.15467 55.54167 2994 ft 187 kts 303°
2026-04-20 21:21 25.16149 55.52940 2746 ft 185 kts 302°
2026-04-20 21:21 25.16784 55.51787 2519 ft 172 kts 302°
2026-04-20 21:22 25.17397 55.50681 2314 ft 166 kts 302°
2026-04-20 21:22 25.17982 55.49622 2096 ft 155 kts 302°
2026-04-20 21:22 25.18534 55.48632 1911 ft 149 kts 302°
2026-04-20 21:22 25.19071 55.47663 1726 ft 148 kts 302°
2026-04-20 21:23 25.19604 55.46689 1539 ft 147 kts 301°
2026-04-20 21:23 25.20125 55.45739 1346 ft 146 kts 303°
2026-04-20 21:23 25.20656 55.44796 1158 ft 146 kts 301°
2026-04-20 21:23 25.21186 55.43826 972 ft 145 kts 302°
2026-04-20 21:24 25.21709 55.42888 794 ft 145 kts 301°
2026-04-20 21:24 25.22232 55.41935 614 ft 145 kts 301°
2026-04-20 21:24 25.22764 55.40981 410 ft 145 kts 301°
2026-04-20 21:24 25.23292 55.40036 201 ft 144 kts 301°
2026-04-20 21:25 25.23814 55.39093 38 ft 138 kts 301°
2026-04-20 21:25 25.24229 55.38337 36 ft 92 kts 301°
2026-04-20 21:25 25.24449 55.37939 35 ft 37 kts 302°
2026-04-20 21:25 25.24547 55.37765 33 ft 26 kts 301°
2026-04-20 21:26 25.24610 55.37592 33 ft 20 kts 278°
2026-04-20 21:26 25.24617 55.37429 30 ft 22 kts 271°
2026-04-20 21:26 25.24621 55.37289 28 ft 9 kts 283°
2026-04-20 21:26 25.24652 55.37206 28 ft 14 kts 298°
2026-04-20 21:27 25.24709 55.37104 28 ft 17 kts 302°
2026-04-20 21:27 25.24776 55.36987 28 ft 20 kts 302°
2026-04-20 21:27 25.24813 55.36919 28 ft 6 kts 279°
2026-04-20 21:27 25.24788 55.36863 27 ft 11 kts 216°
2026-04-20 21:28 25.24710 55.36810 27 ft 15 kts 210°
2026-04-20 21:28 25.24622 55.36752 26 ft 11 kts 211°
2026-04-20 21:28 25.24557 55.36709 26 ft 13 kts 211°
2026-04-20 21:28 25.24478 55.36640 31 ft 16 kts 235°
2026-04-20 21:29 25.24452 55.36523 28 ft 16 kts 286°
2026-04-20 21:29 25.24498 55.36418 31 ft 14 kts 302°
2026-04-20 21:29 25.24549 55.36329 29 ft 15 kts 302°
2026-04-20 21:29 25.24603 55.36233 29 ft 9 kts 301°
2026-04-20 21:30 25.24618 55.36206 31 ft 1 kts 307°
2026-04-20 21:30 25.24634 55.36192 30 ft 3 kts 348°
2026-04-20 21:30 25.24661 55.36196 31 ft 6 kts 24°
2026-04-20 21:30 25.24687 55.36213 30 ft 2 kts 31°
2026-04-20 21:31 25.24703 55.36223 30 ft 1 kts 31°
2026-04-20 21:31 25.24705 55.36224 30 ft 0 kts 31°